This demonstration page uses our WeatherBlox Daily Observations layout. Learn more.

Left ArrowRight Arrow

39.08367, -84.50855

Hourly Observations for April 2, 2015

Temp ( °F °C ) Dew Point ( °F °C ) Humidity (%) Winds ( mph kmh ) Pressure ( in mb ) Visibility ( mi km ) Precip ( " mm )
12:53 am 00:53 Clear 43 6.1 35 1.7 74 74 N N/A 30.06 1018 10 16 N/A
1:53 am 01:53 Clear 41 5 35 1.7 79 79 N N/A 30.03 1017 10 16 N/A
2:53 am 02:53 Clear 40 4.4 35 1.7 83 83 N N/A 29.99 1016 10 16 N/A
3:53 am 03:53 Clear 38 3.3 34 1.1 86 86 N N/A 29.97 1015 10 16 N/A
4:53 am 04:53 Clear 41 5 35 1.7 79 79 SW 3 6 29.96 1015 10 16 N/A
5:53 am 05:53 Mostly Clear 43 6.1 37 2.8 80 80 N N/A 29.97 1015 10 16 N/A
6:53 am 06:53 Mostly Cloudy 45 7.2 36 2.2 71 71 N N/A 29.97 1015 10 16 N/A
7:53 am 07:53 Cloudy with Thunderstorms 47 8.3 36 2.2 66 66 N N/A 29.94 1014 10 16 N/A
8:53 am 08:53 Cloudy with Light Rain 47 8.3 42 5.6 83 83 N N/A 29.94 1014 4 6 0.02 0.51
9:53 am 09:53 Partly Cloudy 53 11.7 44 6.7 72 72 N N/A 29.93 1014 10 16 0.01 0.25
10:53 am 10:53 Mostly Cloudy with Light Rain 57 13.9 46 7.8 67 67 S 6 9 29.93 1014 10 16 N/A
11:53 am 11:53 Mostly Cloudy 62 16.7 51 10.6 67 67 SSW 6 9 29.91 1013 10 16 0.01 0.25
12:53 pm 12:53 Mostly Cloudy 64 17.8 56 13.3 75 75 SSW 22 35 29.89 1012 10 16 N/A
1:53 pm 13:53 Cloudy 63 17.2 57 13.9 81 81 SSW 23 37 29.89 1012 10 16 N/A
2:53 pm 14:53 Cloudy 62 16.7 57 13.9 84 84 S 16 26 29.87 1011 10 16 0.01 0.25
3:53 pm 15:53 Cloudy with Light Rain 63 17.2 58 14.4 84 84 S 14 22 29.86 1011 10 16 N/A
4:53 pm 16:53 Cloudy with Light Rain 62 16.7 60 15.6 93 93 SSW 8 13 29.84 1010 7 11 0.06 1.52
5:53 pm 17:53 Mostly Sunny 63 17.2 61 16.1 93 93 SSW 10 17 29.81 1010 10 16 0.03 0.76
6:53 pm 18:53 Cloudy 64 17.8 61 16.1 90 90 SSW 8 13 29.85 1011 10 16 N/A
7:46 pm 19:46 Cloudy with Thunderstorms 63 17 61 16 94 94 SSW 14 22 29.85 1011 10 16 N/A
7:53 pm 19:53 Cloudy with Thunderstorms 63 17.2 60 15.6 90 90 SSW 13 20 29.85 1011 10 16 0.02 0.51
8:42 pm 20:42 Cloudy with Rain 61 16 59 15 94 94 SSW 10 17 29.85 1011 6 10 N/A
8:53 pm 20:53 Cloudy with Light Rain 61 16.1 59 15 93 93 SSW 16 26 29.85 1011 7 11 0.04 1.02
9:53 pm 21:53 Mostly Clear 61 16.1 58 14.4 90 90 SSW 15 24 29.87 1011 10 16 0.01 0.25
10:17 pm 22:17 Mostly Cloudy with Nearby Thunderstorms 61 16.1 58 14.4 90 90 SSW 15 24 29.88 1012 10 16 N/A
10:31 pm 22:31 Cloudy 61 16.1 58 14.4 90 90 SSW 10 17 29.88 1012 10 16 N/A
10:40 pm 22:40 Mostly Cloudy 61 16 57 14 88 88 SW 8 13 29.91 1013 10 16 N/A
10:50 pm 22:50 Cloudy with Light Rain 61 16 57 14 88 88 SSW 8 13 29.88 1012 10 16 N/A
10:53 pm 22:53 Cloudy with Light Rain 61 16.1 58 14.4 90 90 SSW 7 11 29.89 1012 10 16 N/A
11:32 pm 23:32 Cloudy with Rain 59 15 59 15 100 100 N N/A 29.91 1013 4 6 N/A
11:37 pm 23:37 Cloudy with Heavy Rain 59 15 59 15 100 100 S 9 15 29.88 1012 2 3 0.14 3.56
11:46 pm 23:46 Cloudy with Heavy Rain 59 15 59 15 100 100 S 7 11 29.91 1013 2 3 0.23 5.84
11:53 pm 23:53 Cloudy with Heavy Rain 60 15.6 59 15 96 96 S 7 11 29.89 1012 3 4 0.30 7.62

Powered by AerisWeather